Weather History for Wahpeton, ND

Change the Weather History Date:

Sunday, February 17, 2013

  Actual Average (KFFM) Record (KFFM)
Temperature  
Mean Temperature 19 °F -  
Max Temperature 28 °F 23 °F 50 °F (1981)
Min Temperature 10 °F 4 °F -31 °F (1979)
Degree Days  
Heating Degree Days 46    
Moisture  
Dew Point 18 °F    
Average Humidity 85    
Maximum Humidity 93    
Minimum Humidity 79    
Precipitation  
Precipitation 0.00 in - - ()
Sea Level Pressure  
Sea Level Pressure 29.69 in    
Wind  
Wind Speed 15 mph (SSE)    
Max Wind Speed 22 mph    
Max Gust Speed 28 mph    
Visibility 9 miles    
Events      
Averages and records for this station are not official NWS values.
T = Trace of Precipitation, MM = Missing Value Source: NWS Daily Summary

Daily Weather History Graph

Daily Weather History Graph

Search for Another Location

Airport:

Trip Planner

Search our weather history database for the weather conditions in past years. The results will help you decide how hot, cold, wet, or windy it might be!

Date:

Astronomy

Feb. 17, 2013 Rise Set
Actual Time 7:25 AM CST 5:55 PM CST
Civil Twilight 6:55 AM CST 6:26 PM CST
Nautical Twilight 6:20 AM CST 7:01 PM CST
Astronomical Twilight 5:45 AM CST 7:36 PM CST
Moon 10:52 AM CST (2/17) 1:18 AM CST (2/17)
Length of Visible Light 11h 31m
Length of Day
10h 29m
Waxing Crescent, 49% of the Moon is Illuminated
Feb 17
Waxing Crescent
Feb 17
First Quarter
Feb 25
Full
Mar 4
Last Quarter
Mar 11
New

Hourly Weather History & Observations

Time (CST) Temp. Windchill Dew Point Humidity Pressure Visibility Wind Dir Wind Speed Gust Speed Precip Events Conditions
12:15 AM 10.4 °F -4.1 °F 5.0 °F 79% 29.98 in 10.0 mi SSE 11.5 mph 17.3 mph N/A   Overcast
12:35 AM 10.4 °F -4.1 °F 5.0 °F 79% 29.97 in 10.0 mi SSE 11.5 mph - N/A   Overcast
12:55 AM 10.4 °F -4.1 °F 5.0 °F 79% 29.97 in 10.0 mi SSE 11.5 mph - N/A   Overcast
1:15 AM 10.4 °F -3.3 °F 6.8 °F 85% 29.96 in 10.0 mi SSE 10.4 mph - N/A   Overcast
1:35 AM 10.4 °F -5.4 °F 6.8 °F 85% 29.94 in 10.0 mi SE 13.8 mph - N/A   Overcast
1:55 AM 10.4 °F -6.0 °F 6.8 °F 85% 29.94 in 10.0 mi SSE 15.0 mph - N/A   Scattered Clouds
2:15 AM 10.4 °F -6.0 °F 6.8 °F 85% 29.94 in 10.0 mi SSE 15.0 mph 20.7 mph N/A   Scattered Clouds
2:35 AM 10.4 °F -7.2 °F 6.8 °F 85% 29.93 in 10.0 mi SSE 17.3 mph - N/A   Mostly Cloudy
2:55 AM 12.2 °F -4.3 °F 8.6 °F 85% 29.92 in 10.0 mi SSE 16.1 mph - N/A   Overcast
3:15 AM 14.0 °F -1.4 °F 10.4 °F 86% 29.91 in 10.0 mi SSE 15.0 mph - N/A   Overcast
3:35 AM 14.0 °F -2.5 °F 10.4 °F 86% 29.90 in 10.0 mi SSE 17.3 mph - N/A   Overcast
3:55 AM 14.0 °F -2.0 °F 12.2 °F 93% 29.89 in 10.0 mi SSE 16.1 mph - N/A   Overcast
4:15 AM 15.8 °F 2.1 °F 12.2 °F 86% 29.89 in 10.0 mi SSE 12.7 mph - N/A   Overcast
4:35 AM 15.8 °F 0.9 °F 12.2 °F 86% 29.88 in 10.0 mi SSE 15.0 mph - N/A   Overcast
4:55 AM 15.8 °F 1.4 °F 12.2 °F 86% 29.87 in 10.0 mi SSE 13.8 mph - N/A   Mostly Cloudy
5:15 AM 15.8 °F 0.3 °F 12.2 °F 86% 29.86 in 10.0 mi SSE 16.1 mph 20.7 mph N/A   Mostly Cloudy
5:55 AM 14.0 °F -3.4 °F 12.2 °F 93% 29.82 in 10.0 mi SSE 19.6 mph - N/A   Clear
6:15 AM 14.0 °F -2.0 °F 12.2 °F 93% 29.82 in 10.0 mi SSE 16.1 mph - N/A   Clear
6:35 AM 14.0 °F -2.5 °F 10.4 °F 86% 29.81 in 10.0 mi SSE 17.3 mph - N/A   Clear
6:55 AM 14.0 °F -0.2 °F 10.4 °F 86% 29.80 in 10.0 mi SSE 12.7 mph - N/A   Clear
7:15 AM 14.0 °F -0.8 °F 10.4 °F 86% 29.79 in 7.0 mi SSE 13.8 mph - N/A   Clear
7:35 AM 14.0 °F -1.4 °F 10.4 °F 86% 29.78 in 7.0 mi SSE 15.0 mph - N/A   Clear
7:55 AM 14.0 °F -0.8 °F 10.4 °F 86% 29.78 in 5.0 mi SSE 13.8 mph - N/A   Clear
8:15 AM 14.0 °F -0.8 °F 12.2 °F 93% 29.76 in 10.0 mi SSE 13.8 mph - N/A   Clear
8:35 AM 15.8 °F 0.3 °F 12.2 °F 86% 29.76 in 10.0 mi SSE 16.1 mph - N/A   Clear
8:55 AM 17.6 °F 2.7 °F 14.0 °F 86% 29.75 in 10.0 mi SSE 16.1 mph - N/A   Clear
9:15 AM 17.6 °F 3.2 °F 14.0 °F 86% 29.75 in 10.0 mi SSE 15.0 mph - N/A   Clear
9:35 AM 17.6 °F 3.7 °F 14.0 °F 86% 29.74 in 10.0 mi SSE 13.8 mph - N/A   Clear
9:55 AM 19.4 °F 5.0 °F 14.0 °F 80% 29.73 in 10.0 mi SSE 16.1 mph - N/A   Clear
10:15 AM 19.4 °F 4.5 °F 15.8 °F 86% 29.72 in 7.0 mi SSE 17.3 mph - N/A   Clear
10:35 AM 21.2 °F 6.8 °F 15.8 °F 80% 29.71 in 7.0 mi SSE 17.3 mph - N/A   Scattered Clouds
10:55 AM 21.2 °F 6.8 °F 17.6 °F 86% 29.69 in 7.0 mi SSE 17.3 mph 21.9 mph N/A   Clear
11:15 AM 21.2 °F 6.0 °F 17.6 °F 86% 29.69 in 7.0 mi SSE 19.6 mph - N/A   Scattered Clouds
11:35 AM 23.0 °F 7.6 °F 19.4 °F 86% 29.67 in 5.0 mi SSE 21.9 mph 25.3 mph N/A   Unknown
11:55 AM 23.0 °F 8.0 °F 19.4 °F 86% 29.66 in 5.0 mi SSE 20.7 mph 25.3 mph N/A   Scattered Clouds
12:15 PM 24.8 °F 10.7 °F 21.2 °F 86% 29.65 in 7.0 mi SSE 19.6 mph - N/A   Clear
12:35 PM 26.6 °F 12.7 °F 21.2 °F 80% 29.64 in 5.0 mi SSE 20.7 mph 26.5 mph N/A   Scattered Clouds
12:55 PM 26.6 °F 12.4 °F 21.2 °F 80% 29.63 in 7.0 mi SSE 21.9 mph 26.5 mph N/A   Scattered Clouds
1:15 PM 26.6 °F 13.1 °F 21.2 °F 80% 29.61 in 5.0 mi SSE 19.6 mph - N/A   Scattered Clouds
1:35 PM 26.6 °F 12.7 °F 21.2 °F 80% 29.60 in 7.0 mi SSE 20.7 mph - N/A   Clear
1:55 PM 26.6 °F 12.7 °F 21.2 °F 80% 29.59 in 5.0 mi SSE 20.7 mph 26.5 mph N/A   Scattered Clouds
2:15 PM 26.6 °F 12.7 °F 23.0 °F 86% 29.59 in 7.0 mi SSE 20.7 mph 25.3 mph N/A   Scattered Clouds
2:35 PM 28.4 °F 15.1 °F 23.0 °F 80% 29.58 in 7.0 mi SSE 20.7 mph 27.6 mph N/A   Clear
2:55 PM 28.4 °F 15.4 °F 23.0 °F 80% 29.57 in 7.0 mi SSE 19.6 mph - N/A   Clear
3:15 PM 28.4 °F 14.7 °F 23.0 °F 80% 29.56 in 7.0 mi SSE 21.9 mph - N/A   Clear
3:35 PM 28.4 °F 15.8 °F 23.0 °F 80% 29.56 in 7.0 mi SSE 18.4 mph 25.3 mph N/A   Clear
3:55 PM 28.4 °F 15.4 °F 23.0 °F 80% 29.56 in 7.0 mi SSE 19.6 mph 24.2 mph N/A   Clear
4:15 PM 28.4 °F 16.2 °F 23.0 °F 80% 29.56 in 10.0 mi SSE 17.3 mph 24.2 mph N/A   Clear
4:35 PM 28.4 °F 16.2 °F 24.8 °F 86% 29.56 in 10.0 mi SSE 17.3 mph 24.2 mph N/A   Clear
4:55 PM 28.4 °F 15.8 °F 24.8 °F 86% 29.56 in 10.0 mi SSE 18.4 mph - N/A   Clear
5:15 PM 28.4 °F 16.2 °F 24.8 °F 86% 29.56 in 10.0 mi SSE 17.3 mph - N/A   Clear
5:35 PM 28.4 °F 16.6 °F 26.6 °F 93% 29.56 in 10.0 mi SSE 16.1 mph - N/A   Clear
5:55 PM 28.4 °F 15.8 °F 26.6 °F 93% 29.55 in 10.0 mi SSE 18.4 mph - N/A   Clear
6:15 PM 28.4 °F 16.6 °F 26.6 °F 93% 29.55 in 10.0 mi SSE 16.1 mph - N/A   Clear
6:35 PM 28.4 °F 18.0 °F 26.6 °F 93% 29.56 in 10.0 mi SSE 12.7 mph - N/A   Clear
6:55 PM 28.4 °F 16.2 °F 24.8 °F 86% 29.54 in 10.0 mi SE 17.3 mph - N/A   Clear
7:15 PM 28.4 °F 17.5 °F 24.8 °F 86% 29.54 in 10.0 mi SE 13.8 mph - N/A   Clear
7:35 PM 28.4 °F 18.5 °F 23.0 °F 80% 29.55 in 10.0 mi SSE 11.5 mph - N/A   Clear
7:55 PM 28.4 °F 18.5 °F 23.0 °F 80% 29.54 in 10.0 mi SSE 11.5 mph - N/A   Clear
8:15 PM 28.4 °F 18.5 °F 23.0 °F 80% 29.54 in 10.0 mi SSE 11.5 mph - N/A   Clear
8:35 PM 26.6 °F 17.5 °F 23.0 °F 86% 29.54 in 10.0 mi SSE 9.2 mph - N/A   Clear
8:55 PM 26.6 °F 16.8 °F 23.0 °F 86% 29.54 in 10.0 mi SSE 10.4 mph - N/A   Scattered Clouds
9:15 PM 26.6 °F 17.5 °F 23.0 °F 86% 29.52 in 10.0 mi SSE 9.2 mph - N/A   Scattered Clouds
9:35 PM 26.6 °F 17.5 °F 23.0 °F 86% 29.53 in 10.0 mi SSE 9.2 mph - N/A   Scattered Clouds
9:55 PM 28.4 °F 20.4 °F 24.8 °F 86% 29.54 in 10.0 mi South 8.1 mph - N/A   Mostly Cloudy
10:15 PM 26.6 °F 20.0 °F 23.0 °F 86% 29.53 in 7.0 mi South 5.8 mph - N/A   Overcast
10:35 PM 26.6 °F 22.6 °F 24.8 °F 93% 29.53 in 7.0 mi South 3.5 mph - N/A   Overcast
10:55 PM 26.6 °F - 24.8 °F 93% 29.52 in 7.0 mi Calm Calm - N/A   Overcast
11:15 PM 28.4 °F 21.2 °F 26.6 °F 93% 29.50 in 7.0 mi SE 6.9 mph - N/A   Overcast
11:35 PM 28.4 °F 21.2 °F 24.8 °F 86% 29.50 in 7.0 mi SSE 6.9 mph - N/A   Mostly Cloudy
11:55 PM 28.4 °F 19.7 °F 24.8 °F 86% 29.51 in 7.0 mi South 9.2 mph - N/A   Overcast